"SCET";"TARGET";"ELECTRON_DENSITY";"ERROR_FLAG";"ELECTRON_DENSITY_ERROR";"FREQ_FCE";"MEASURED_VALUE";"MEASURED_ITEM";"FREQ_PLASMA";"FREQ_UPPER_HYBRID";"FREQ_R_EQUALS_ZERO";"FREQ_L_EQUALS_ZERO";"ORBIT_NUMBER";"SATURN_RADIUS";"SATURN_IAU_LONGITUDE";"SATURN_SLS4_S_LONGITUDE";"SATURN_SLS4_N_LONGITUDE";"SATURN_SLS5_S_LONGITUDE";"SATURN_SLS5_N_LONGITUDE";"SATURN_LOCAL_TIME";"SATURN_KRONOGRAPHIC_LATITUDE";"SATURN_MAGNETIC_LATITUDE";"SATURN_L";"SATURN_L_OFFSET";"SATURN_SOLAR_EQUATORIAL_X";"SATURN_SOLAR_EQUATORIAL_Y";"SATURN_SOLAR_EQUATORIAL_Z";"SATURN_ALTITUDE";"ENCELADUS_ENCOUNTER_NUMBER";"ENCELADUS_RADIUS";"ENCELADUS_COROTATIONAL_X";"ENCELADUS_COROTATIONAL_Y";"ENCELADUS_COROTATIONAL_Z";"ENCELADUS_TRUE_ANOMALY";"ENCELADUS_PERIAPSIS_TIME";"JUPITER_RADIUS";"JUPITER_SYSTEMIII_LONGITUDE";"JUPITER_MAGNETIC_LATITUDE";"JUPITER_MAGNETIC_LOCAL_TIME";"JUPITER_L";"IO_PHASE";"EARTH_RADIUS";"EARTH_MAGNETIC_LATITUDE";"EARTH_LOCAL_TIME";"EARTH_L"
"[UTC]";"[0=Saturn, 1=Enceladus, 2=Jupiter, 3=Earth]";"[cm-3]";"[0=automated, 1=manual]";"[normalized density error]";"[Hz]";"[Hz]";"[0=upper hybrid frequency, 1=plasma frequency cutoff]";"[Hz]";"[Hz]";"[Hz]";"[Hz}";"[0, A, B, C, 3, 4, ... , 292, 293]";"[Rs where 1Rs=60268km]";"[degrees]";"[degrees]";"[degrees]";"[degrees]";"[degrees]";"[hours]";"[degrees]";"[degrees where offset=2293km north]";"[Rs where 1Rs=60268km]";"[Rs where 1Rs=60268km and offset=2293km north]";"[Rs where 1Rs=60268km]";"[Rs where 1Rs=60268km]";"[Rs where 1Rs=60268km]";"[km where ellipsoid a,b=60268km and c=54364km]";"[E0, E1, E2, ... , E21, E22]";"[Renc where 1Renc=252.1km]";"[Renc where 1Renc=252.1km]";"[Renc where 1Renc=252.1km]";"[Renc where 1Renc=252.1km]";"[degrees]";"[UTC]";"[Rj where 1Rj=71492km]";"[degrees]";"[degrees using JRM09 model]";"[hours using JRM09 model]";"[Rj where 1Rj=71492km]";"[degrees]";"[Re where 1Re=6378.1366km]";"[degrees]";"[hours]";"[Re where 1Re=6378.1366km]"
2010-10-17T00:00:06.055Z;0;3.9710e+01;0;     0.079;  2879.324;  56663.062; 0;  56589.859;  56663.062;  58047.832;  55168.508;139;   5.698; 198.958;;;  93.959; 146.859;  11.145;   2.808;   2.425;   5.712;   5.691;   5.549;  -1.263;   0.279;;;;;;;;;;;;;;;;;;
2010-10-17T00:00:14.055Z;0;3.9940e+01;0;     0.079;  2878.064;  56825.559; 0;  56752.629;  56825.559;  58209.902;  55331.836;139;   5.699; 199.017;;;  94.017; 146.918;  11.146;   2.807;   2.425;   5.713;   5.692;   5.551;  -1.262;   0.279;;;;;;;;;;;;;;;;;;
2010-10-17T00:00:22.055Z;0;3.9830e+01;0;     0.081;  2876.832;  56745.617; 0;  56672.648;  56745.617;  58129.312;  55252.480;139;   5.700; 199.076;;;  94.076; 146.978;  11.147;   2.807;   2.425;   5.714;   5.692;   5.552;  -1.260;   0.279;;;;;;;;;;;;;;;;;;
2010-10-17T00:00:38.054Z;0;4.0000e+01;0;     0.081;  2874.340;  56870.473; 0;  56797.789;  56870.473;  58253.137;  55378.797;139;   5.702; 199.194;;;  94.193; 147.096;  11.149;   2.806;   2.425;   5.716;   5.694;   5.554;  -1.257;   0.279;;;;;;;;;;;;;;;;;;
2010-10-17T00:00:46.054Z;0;3.9830e+01;0;     0.075;  2873.108;  56744.770; 0;  56671.988;  56744.770;  58126.746;  55253.637;139;   5.703; 199.252;;;  94.251; 147.155;  11.151;   2.806;   2.424;   5.717;   5.695;   5.556;  -1.256;   0.279;;;;;;;;;;;;;;;;;;
2010-10-17T00:00:54.054Z;0;4.0240e+01;0;     0.081;  2871.848;  57037.434; 0;  56965.090;  57037.434;  58419.109;  55547.258;139;   5.704; 199.311;;;  94.310; 147.215;  11.152;   2.806;   2.424;   5.718;   5.696;   5.557;  -1.255;   0.279;;;;;;;;;;;;;;;;;;
2010-10-17T00:01:02.054Z;0;4.0500e+01;0;     0.081;  2870.308;  57218.809; 0;  57146.770;  57218.809;  58599.941;  55729.633;139;   5.705; 199.370;;;  94.368; 147.274;  11.153;   2.806;   2.424;   5.718;   5.697;   5.558;  -1.253;   0.279;;;;;;;;;;;;;;;;;;
2010-10-17T00:01:10.054Z;0;3.9740e+01;0;     0.077;  2868.236;  56682.883; 0;  56610.270;  56682.883;  58062.547;  55194.312;139;   5.706; 199.429;;;  94.427; 147.333;  11.154;   2.805;   2.424;   5.719;   5.698;   5.560;  -1.252;   0.279;;;;;;;;;;;;;;;;;;
2010-10-17T00:01:18.054Z;0;3.9950e+01;0;     0.080;  2866.192;  56828.844; 0;  56756.520;  56828.844;  58207.703;  55341.512;139;   5.707; 199.488;;;  94.485; 147.393;  11.155;   2.805;   2.423;   5.720;   5.699;   5.561;  -1.251;   0.279;;;;;;;;;;;;;;;;;;
2010-10-17T00:01:26.054Z;0;3.9960e+01;0;     0.081;  2864.120;  56836.746; 0;  56764.535;  56836.746;  58214.656;  55350.535;139;   5.708; 199.547;;;  94.544; 147.452;  11.156;   2.805;   2.423;   5.721;   5.700;   5.562;  -1.249;   0.279;;;;;;;;;;;;;;;;;;
2010-10-17T00:01:34.054Z;0;3.9810e+01;0;     0.077;  2862.048;  56734.000; 0;  56661.762;  56734.000;  58110.855;  55248.809;139;   5.709; 199.606;;;  94.602; 147.511;  11.157;   2.805;   2.423;   5.722;   5.701;   5.563;  -1.248;   0.279;;;;;;;;;;;;;;;;;;
2010-10-17T00:01:42.054Z;0;3.9870e+01;0;     0.077;  2860.004;  56774.395; 0;  56702.312;  56774.395;  58150.344;  55290.340;139;   5.709; 199.665;;;  94.661; 147.571;  11.158;   2.804;   2.423;   5.723;   5.702;   5.565;  -1.247;   0.279;;;;;;;;;;;;;;;;;;
2010-10-17T00:01:50.054Z;0;3.9750e+01;0;     0.086;  2857.932;  56686.352; 0;  56614.262;  56686.352;  58061.258;  55203.328;139;   5.710; 199.724;;;  94.719; 147.630;  11.159;   2.804;   2.423;   5.724;   5.703;   5.566;  -1.245;   0.279;;;;;;;;;;;;;;;;;;
2010-10-17T00:01:58.054Z;0;3.9720e+01;0;     0.080;  2855.860;  56669.402; 0;  56597.395;  56669.402;  58043.336;  55187.477;139;   5.711; 199.783;;;  94.778; 147.690;  11.160;   2.804;   2.422;   5.725;   5.704;   5.567;  -1.244;   0.279;;;;;;;;;;;;;;;;;;
2010-10-17T00:02:06.054Z;0;4.0070e+01;0;     0.083;  2854.488;  56918.574; 0;  56846.953;  56918.574;  58292.109;  55437.621;139;   5.712; 199.842;;;  94.837; 147.749;  11.161;   2.803;   2.422;   5.726;   5.705;   5.568;  -1.243;   0.279;;;;;;;;;;;;;;;;;;
2010-10-17T00:02:14.054Z;0;4.0160e+01;0;     0.080;  2853.200;  56981.816; 0;  56910.340;  56981.816;  58354.816;  55501.617;139;   5.713; 199.901;;;  94.895; 147.809;  11.162;   2.803;   2.422;   5.727;   5.706;   5.570;  -1.241;   0.279;;;;;;;;;;;;;;;;;;
2010-10-17T00:02:22.054Z;0;3.9770e+01;0;     0.079;  2851.912;  56703.492; 0;  56631.727;  56703.492;  58075.633;  55223.723;139;   5.714; 199.960;;;  94.954; 147.868;  11.163;   2.803;   2.422;   5.728;   5.707;   5.571;  -1.240;   0.279;;;;;;;;;;;;;;;;;;
2010-10-17T00:02:30.054Z;0;4.0080e+01;0;     0.079;  2850.624;  56920.859; 0;  56849.434;  56920.859;  58292.609;  55441.988;139;   5.715; 200.019;;;  95.012; 147.928;  11.164;   2.803;   2.422;   5.729;   5.708;   5.572;  -1.238;   0.279;;;;;;;;;;;;;;;;;;
2010-10-17T00:02:38.054Z;0;4.0560e+01;0;     0.078;  2849.336;  57262.039; 0;  57191.105;  57262.039;  58633.516;  55784.180;139;   5.716; 200.078;;;  95.071; 147.987;  11.166;   2.802;   2.421;   5.730;   5.708;   5.574;  -1.237;   0.279;;;;;;;;;;;;;;;;;;
2010-10-17T00:02:46.054Z;0;3.9960e+01;0;     0.076;  2848.048;  56834.680; 0;  56763.277;  56834.680;  58205.160;  55357.109;139;   5.717; 200.137;;;  95.129; 148.047;  11.167;   2.802;   2.421;   5.731;   5.709;   5.575;  -1.236;   0.279;;;;;;;;;;;;;;;;;;
2010-10-17T00:02:54.053Z;0;3.9840e+01;0;     0.084;  2846.760;  56751.180; 0;  56679.734;  56751.180;  58120.984;  55274.223;139;   5.718; 200.196;;;  95.188; 148.107;  11.168;   2.802;   2.421;   5.732;   5.710;   5.576;  -1.234;   0.279;;;;;;;;;;;;;;;;;;
2010-10-17T00:03:02.053Z;0;3.9960e+01;0;     0.086;  2845.500;  56840.887; 0;  56769.617;  56840.887;  58210.195;  55364.695;139;   5.719; 200.255;;;  95.247; 148.166;  11.169;   2.801;   2.421;   5.733;   5.711;   5.577;  -1.233;   0.280;;;;;;;;;;;;;;;;;;
2010-10-17T00:03:10.053Z;0;3.9700e+01;0;     0.080;  2844.212;  56655.633; 0;  56584.195;  56655.633;  58024.168;  55179.957;139;   5.720; 200.314;;;  95.305; 148.226;  11.170;   2.801;   2.420;   5.734;   5.712;   5.579;  -1.232;   0.280;;;;;;;;;;;;;;;;;;
2010-10-17T00:03:18.053Z;0;3.9440e+01;0;     0.079;  2842.924;  56470.664; 0;  56399.059;  56470.664;  57838.430;  54995.504;139;   5.721; 200.373;;;  95.364; 148.286;  11.171;   2.801;   2.420;   5.734;   5.713;   5.580;  -1.230;   0.280;;;;;;;;;;;;;;;;;;
2010-10-17T00:03:26.053Z;0;3.9870e+01;0;     0.080;  2841.636;  56773.410; 0;  56702.250;  56773.410;  58140.867;  55299.230;139;   5.722; 200.432;;;  95.422; 148.346;  11.172;   2.801;   2.420;   5.735;   5.714;   5.581;  -1.229;   0.280;;;;;;;;;;;;;;;;;;
2010-10-17T00:03:34.053Z;0;3.9820e+01;0;     0.078;  2840.348;  56738.031; 0;  56666.891;  56738.031;  58104.859;  55264.512;139;   5.723; 200.491;;;  95.481; 148.405;  11.173;   2.800;   2.420;   5.736;   5.715;   5.582;  -1.228;   0.280;;;;;;;;;;;;;;;;;;
2010-10-17T00:03:42.053Z;0;3.9710e+01;0;     0.079;  2839.060;  56661.250; 0;  56590.078;  56661.250;  58027.410;  55188.352;139;   5.724; 200.550;;;  95.540; 148.465;  11.174;   2.800;   2.420;   5.737;   5.716;   5.584;  -1.226;   0.280;;;;;;;;;;;;;;;;;;
2010-10-17T00:03:50.053Z;0;3.9640e+01;0;     0.082;  2837.800;  56610.129; 0;  56538.957;  56610.129;  57975.656;  55137.859;139;   5.725; 200.609;;;  95.598; 148.525;  11.175;   2.800;   2.419;   5.738;   5.717;   5.585;  -1.225;   0.280;;;;;;;;;;;;;;;;;;
2010-10-17T00:03:58.053Z;0;4.0080e+01;0;     0.080;  2836.512;  56919.457; 0;  56848.734;  56919.457;  58284.680;  55448.168;139;   5.726; 200.668;;;  95.657; 148.585;  11.176;   2.799;   2.419;   5.739;   5.718;   5.586;  -1.223;   0.280;;;;;;;;;;;;;;;;;;
2010-10-17T00:04:06.053Z;0;3.9400e+01;0;     0.083;  2834.860;  56439.504; 0;  56368.266;  56439.504;  57803.512;  54968.652;139;   5.726; 200.727;;;  95.716; 148.645;  11.177;   2.799;   2.419;   5.740;   5.719;   5.588;  -1.222;   0.280;;;;;;;;;;;;;;;;;;
2010-10-17T00:04:14.053Z;0;3.9540e+01;0;     0.082;  2833.180;  56536.750; 0;  56465.719;  56536.750;  57900.074;  55066.895;139;   5.727; 200.786;;;  95.774; 148.704;  11.178;   2.799;   2.419;   5.741;   5.720;   5.589;  -1.221;   0.280;;;;;;;;;;;;;;;;;;
2010-10-17T00:04:22.053Z;0;3.9610e+01;0;     0.081;  2831.472;  56589.902; 0;  56519.023;  56589.902;  57952.484;  55121.016;139;   5.728; 200.845;;;  95.833; 148.764;  11.179;   2.799;   2.419;   5.742;   5.721;   5.590;  -1.219;   0.280;;;;;;;;;;;;;;;;;;
2010-10-17T00:04:30.053Z;0;3.9640e+01;0;     0.084;  2829.792;  56606.516; 0;  56535.738;  56606.516;  57968.340;  55138.547;139;   5.729; 200.904;;;  95.892; 148.824;  11.181;   2.798;   2.418;   5.743;   5.722;   5.591;  -1.218;   0.280;;;;;;;;;;;;;;;;;;
2010-10-17T00:04:38.053Z;0;3.9640e+01;0;     0.079;  2828.084;  56612.301; 0;  56541.617;  56612.301;  57973.340;  55145.254;139;   5.730; 200.963;;;  95.950; 148.884;  11.182;   2.798;   2.418;   5.744;   5.723;   5.593;  -1.217;   0.280;;;;;;;;;;;;;;;;;;
2010-10-17T00:04:46.053Z;0;3.9720e+01;0;     0.082;  2826.404;  56662.930; 0;  56592.395;  56662.930;  58023.238;  55196.836;139;   5.731; 201.022;;;  96.009; 148.944;  11.183;   2.798;   2.418;   5.745;   5.724;   5.594;  -1.215;   0.280;;;;;;;;;;;;;;;;;;
2010-10-17T00:04:54.053Z;0;3.9770e+01;0;     0.082;  2824.696;  56698.609; 0;  56628.203;  56698.609;  58058.160;  55233.465;139;   5.732; 201.081;;;  96.068; 149.004;  11.184;   2.798;   2.418;   5.746;   5.725;   5.595;  -1.214;   0.280;;;;;;;;;;;;;;;;;;
2010-10-17T00:05:02.053Z;0;3.9620e+01;0;     0.085;  2823.296;  56595.953; 0;  56525.488;  56595.953;  57954.762;  55131.465;139;   5.733; 201.140;;;  96.126; 149.064;  11.185;   2.797;   2.417;   5.747;   5.725;   5.596;  -1.213;   0.280;;;;;;;;;;;;;;;;;;
2010-10-17T00:05:10.052Z;0;3.9730e+01;0;     0.081;  2822.400;  56674.953; 0;  56604.633;  56674.953;  58033.422;  55211.020;139;   5.734; 201.199;;;  96.185; 149.124;  11.186;   2.797;   2.417;   5.748;   5.726;   5.598;  -1.211;   0.280;;;;;;;;;;;;;;;;;;
2010-10-17T00:05:18.052Z;0;3.9890e+01;0;     0.084;  2821.476;  56789.195; 0;  56719.062;  56789.195;  58147.340;  55325.867;139;   5.735; 201.258;;;  96.244; 149.184;  11.187;   2.797;   2.417;   5.749;   5.727;   5.599;  -1.210;   0.280;;;;;;;;;;;;;;;;;;
2010-10-17T00:05:26.052Z;0;3.9490e+01;0;     0.086;  2820.552;  56501.820; 0;  56431.375;  56501.820;  57859.270;  55038.719;139;   5.736; 201.317;;;  96.302; 149.244;  11.188;   2.796;   2.417;   5.750;   5.728;   5.600;  -1.209;   0.280;;;;;;;;;;;;;;;;;;
2010-10-17T00:05:34.051Z;0;3.9590e+01;0;     0.083;  2819.628;  56574.289; 0;  56503.980;  56574.289;  57931.379;  55111.754;139;   5.737; 201.376;;;  96.361; 149.304;  11.189;   2.796;   2.417;   5.751;   5.729;   5.601;  -1.207;   0.280;;;;;;;;;;;;;;;;;;
2010-10-17T00:05:42.051Z;0;3.9570e+01;0;     0.086;  2818.732;  56561.383; 0;  56491.102;  56561.383;  57918.047;  55099.316;139;   5.738; 201.435;;;  96.420; 149.364;  11.190;   2.796;   2.416;   5.752;   5.730;   5.603;  -1.206;   0.280;;;;;;;;;;;;;;;;;;
2010-10-17T00:05:50.051Z;0;3.9820e+01;0;     0.082;  2817.808;  56734.738; 0;  56664.719;  56734.738;  58091.137;  55273.328;139;   5.739; 201.495;;;  96.478; 149.425;  11.191;   2.796;   2.416;   5.752;   5.731;   5.604;  -1.204;   0.280;;;;;;;;;;;;;;;;;;
2010-10-17T00:05:58.051Z;0;3.9570e+01;0;     0.086;  2816.884;  56557.980; 0;  56487.789;  56557.980;  57913.785;  55096.902;139;   5.740; 201.554;;;  96.537; 149.485;  11.192;   2.795;   2.416;   5.753;   5.732;   5.605;  -1.203;   0.280;;;;;;;;;;;;;;;;;;
2010-10-17T00:06:06.051Z;0;3.9840e+01;0;     0.083;  2815.820;  56752.285; 0;  56682.387;  56752.285;  58107.781;  55291.961;139;   5.741; 201.613;;;  96.596; 149.545;  11.193;   2.795;   2.416;   5.754;   5.733;   5.606;  -1.202;   0.280;;;;;;;;;;;;;;;;;;
2010-10-17T00:06:14.051Z;0;3.9340e+01;0;     0.088;  2814.756;  56393.730; 0;  56323.441;  56393.730;  57748.398;  54933.645;139;   5.742; 201.672;;;  96.655; 149.605;  11.194;   2.795;   2.415;   5.755;   5.734;   5.608;  -1.200;   0.280;;;;;;;;;;;;;;;;;;
2010-10-17T00:06:22.051Z;0;3.9640e+01;0;     0.082;  2813.692;  56605.402; 0;  56535.430;  56605.402;  57959.777;  55146.086;139;   5.743; 201.731;;;  96.713; 149.665;  11.195;   2.794;   2.415;   5.756;   5.735;   5.609;  -1.199;   0.280;;;;;;;;;;;;;;;;;;
2010-10-17T00:06:30.051Z;0;3.9580e+01;0;     0.078;  2812.628;  56564.215; 0;  56494.242;  56564.215;  57918.059;  55105.430;139;   5.744; 201.790;;;  96.772; 149.726;  11.197;   2.794;   2.415;   5.757;   5.736;   5.610;  -1.198;   0.280;;;;;;;;;;;;;;;;;;
2010-10-17T00:06:38.051Z;0;3.9370e+01;0;     0.082;  2811.564;  56413.938; 0;  56343.832;  56413.938;  57767.148;  54955.586;139;   5.744; 201.849;;;  96.831; 149.786;  11.198;   2.794;   2.415;   5.758;   5.737;   5.612;  -1.196;   0.280;;;;;;;;;;;;;;;;;;
2010-10-17T00:06:46.051Z;0;3.9710e+01;0;     0.081;  2810.500;  56656.129; 0;  56586.375;  56656.129;  58009.074;  55198.574;139;   5.745; 201.908;;;  96.890; 149.846;  11.199;   2.794;   2.415;   5.759;   5.738;   5.613;  -1.195;   0.280;;;;;;;;;;;;;;;;;;
2010-10-17T00:06:54.051Z;0;3.9570e+01;0;     0.082;  2809.408;  56558.859; 0;  56489.043;  56558.859;  57911.207;  55101.801;139;   5.746; 201.968;;;  96.948; 149.907;  11.200;   2.793;   2.414;   5.760;   5.739;   5.614;  -1.194;   0.280;;;;;;;;;;;;;;;;;;
2010-10-17T00:07:02.051Z;0;3.9890e+01;0;     0.080;  2808.484;  56787.762; 0;  56718.270;  56787.762;  58139.895;  55331.410;139;   5.747; 202.027;;;  97.007; 149.967;  11.201;   2.793;   2.414;   5.761;   5.740;   5.615;  -1.192;   0.280;;;;;;;;;;;;;;;;;;
2010-10-17T00:07:10.051Z;0;3.9790e+01;0;     0.081;  2807.728;  56717.703; 0;  56648.164;  56717.703;  58069.422;  55261.691;139;   5.748; 202.086;;;  97.066; 150.027;  11.202;   2.793;   2.414;   5.762;   5.741;   5.617;  -1.191;   0.280;;;;;;;;;;;;;;;;;;
2010-10-17T00:07:18.051Z;0;3.9580e+01;0;     0.084;  2806.972;  56568.746; 0;  56499.062;  56568.746;  57919.977;  55113.004;139;   5.749; 202.145;;;  97.125; 150.088;  11.203;   2.792;   2.414;   5.763;   5.742;   5.618;  -1.189;   0.280;;;;;;;;;;;;;;;;;;
2010-10-17T00:07:26.051Z;0;3.9850e+01;0;     0.079;  2806.216;  56755.660; 0;  56686.242;  56755.660;  58106.715;  55300.496;139;   5.750; 202.204;;;  97.183; 150.148;  11.204;   2.792;   2.413;   5.764;   5.743;   5.619;  -1.188;   0.280;;;;;;;;;;;;;;;;;;
2010-10-17T00:07:34.050Z;0;3.9570e+01;0;     0.081;  2805.488;  56561.062; 0;  56491.441;  56561.062;  57911.598;  55106.109;139;   5.751; 202.263;;;  97.242; 150.209;  11.205;   2.792;   2.413;   5.765;   5.743;   5.620;  -1.187;   0.280;;;;;;;;;;;;;;;;;;
2010-10-17T00:07:42.050Z;0;3.9800e+01;0;     0.084;  2804.732;  56720.098; 0;  56650.711;  56720.098;  58070.430;  55265.699;139;   5.752; 202.322;;;  97.301; 150.269;  11.206;   2.792;   2.413;   5.766;   5.744;   5.622;  -1.185;   0.280;;;;;;;;;;;;;;;;;;
2010-10-17T00:07:50.050Z;0;3.9600e+01;0;     0.084;  2803.976;  56582.398; 0;  56512.879;  56582.398;  57932.254;  55128.277;139;   5.753; 202.382;;;  97.360; 150.330;  11.207;   2.791;   2.413;   5.767;   5.745;   5.623;  -1.184;   0.280;;;;;;;;;;;;;;;;;;
2010-10-17T00:07:58.050Z;0;3.9710e+01;0;     0.078;  2803.248;  56658.141; 0;  56588.750;  56658.141;  58007.730;  55204.480;139;   5.754; 202.441;;;  97.419; 150.390;  11.208;   2.791;   2.413;   5.768;   5.746;   5.624;  -1.183;   0.280;;;;;;;;;;;;;;;;;;
2010-10-17T00:08:06.050Z;0;3.9410e+01;0;     0.081;  2801.820;  56444.906; 0;  56375.324;  56444.906;  57793.637;  54991.816;139;   5.755; 202.500;;;  97.477; 150.451;  11.209;   2.791;   2.412;   5.769;   5.747;   5.625;  -1.181;   0.280;;;;;;;;;;;;;;;;;;
2010-10-17T00:08:14.050Z;0;3.9810e+01;0;     0.080;  2800.336;  56729.738; 0;  56660.578;  56729.738;  58078.047;  55277.711;139;   5.756; 202.559;;;  97.536; 150.511;  11.210;   2.790;   2.412;   5.770;   5.748;   5.627;  -1.180;   0.280;;;;;;;;;;;;;;;;;;
2010-10-17T00:08:22.050Z;0;3.9390e+01;0;     0.079;  2798.852;  56432.516; 0;  56363.066;  56432.516;  57779.863;  54981.012;139;   5.757; 202.618;;;  97.595; 150.572;  11.211;   2.790;   2.412;   5.770;   5.749;   5.628;  -1.179;   0.280;;;;;;;;;;;;;;;;;;
2010-10-17T00:08:30.050Z;0;3.9660e+01;0;     0.081;  2797.340;  56624.152; 0;  56555.012;  56624.152;  57970.977;  55173.637;139;   5.758; 202.678;;;  97.654; 150.632;  11.212;   2.790;   2.412;   5.771;   5.750;   5.629;  -1.177;   0.280;;;;;;;;;;;;;;;;;;
2010-10-17T00:08:38.050Z;0;3.9210e+01;0;     0.085;  2795.856;  56300.023; 0;  56230.559;  56300.023;  57645.863;  54850.004;139;   5.759; 202.737;;;  97.713; 150.693;  11.213;   2.790;   2.411;   5.772;   5.751;   5.630;  -1.176;   0.280;;;;;;;;;;;;;;;;;;
2010-10-17T00:08:46.050Z;0;3.9700e+01;0;     0.087;  2794.372;  56651.145; 0;  56582.184;  56651.145;  57996.617;  55202.246;139;   5.760; 202.796;;;  97.771; 150.754;  11.215;   2.789;   2.411;   5.773;   5.752;   5.632;  -1.174;   0.280;;;;;;;;;;;;;;;;;;
2010-10-17T00:08:54.050Z;0;3.9430e+01;0;     0.082;  2792.860;  56460.633; 0;  56391.516;  56460.633;  57805.234;  55012.371;139;   5.761; 202.855;;;  97.830; 150.814;  11.216;   2.789;   2.411;   5.774;   5.753;   5.633;  -1.173;   0.280;;;;;;;;;;;;;;;;;;
2010-10-17T00:09:02.050Z;0;3.9710e+01;0;     0.084;  2792.216;  56653.734; 0;  56584.883;  56653.734;  57998.211;  55205.996;139;   5.762; 202.915;;;  97.889; 150.875;  11.217;   2.789;   2.411;   5.775;   5.754;   5.634;  -1.172;   0.280;;;;;;;;;;;;;;;;;;
2010-10-17T00:09:10.050Z;0;3.9590e+01;0;     0.080;  2792.916;  56574.156; 0;  56505.176;  56574.156;  57918.887;  55125.969;139;   5.762; 202.974;;;  97.948; 150.936;  11.218;   2.788;   2.411;   5.776;   5.755;   5.635;  -1.170;   0.280;;;;;;;;;;;;;;;;;;
2010-10-17T00:09:18.050Z;0;3.9960e+01;0;     0.079;  2793.616;  56838.266; 0;  56769.570;  56838.266;  58183.559;  55389.945;139;   5.763; 203.033;;;  98.007; 150.997;  11.219;   2.788;   2.410;   5.777;   5.756;   5.637;  -1.169;   0.280;;;;;;;;;;;;;;;;;;
2010-10-17T00:09:26.050Z;0;3.9060e+01;0;     0.085;  2794.316;  56194.434; 0;  56124.914;  56194.434;  57539.461;  54745.145;139;   5.764; 203.092;;;  98.066; 151.057;  11.220;   2.788;   2.410;   5.778;   5.757;   5.638;  -1.168;   0.280;;;;;;;;;;;;;;;;;;
2010-10-17T00:09:34.050Z;0;3.9940e+01;0;     0.081;  2795.016;  56818.500; 0;  56749.711;  56818.500;  58164.426;  55369.410;139;   5.765; 203.151;;;  98.125; 151.118;  11.221;   2.788;   2.410;   5.779;   5.758;   5.639;  -1.166;   0.280;;;;;;;;;;;;;;;;;;
2010-10-17T00:09:42.050Z;0;3.9830e+01;0;     0.078;  2795.716;  56741.043; 0;  56672.125;  56741.043;  58087.223;  55291.504;139;   5.766; 203.211;;;  98.183; 151.179;  11.222;   2.787;   2.410;   5.780;   5.759;   5.640;  -1.165;   0.280;;;;;;;;;;;;;;;;;;
2010-10-17T00:09:50.050Z;0;3.9690e+01;0;     0.086;  2796.388;  56644.930; 0;  56575.863;  56644.930;  57991.332;  55194.945;139;   5.767; 203.270;;;  98.242; 151.240;  11.223;   2.787;   2.409;   5.781;   5.760;   5.642;  -1.164;   0.280;;;;;;;;;;;;;;;;;;
2010-10-17T00:09:58.049Z;0;3.9470e+01;0;     0.082;  2797.088;  56486.621; 0;  56417.324;  56486.621;  57833.203;  55036.113;139;   5.768; 203.329;;;  98.301; 151.301;  11.224;   2.787;   2.409;   5.782;   5.761;   5.643;  -1.162;   0.280;;;;;;;;;;;;;;;;;;
2010-10-17T00:10:06.049Z;0;3.9380e+01;0;     0.079;  2796.920;  56419.066; 0;  56349.695;  56419.066;  57765.508;  54968.586;139;   5.769; 203.389;;;  98.360; 151.361;  11.225;   2.786;   2.409;   5.783;   5.762;   5.644;  -1.161;   0.280;;;;;;;;;;;;;;;;;;
2010-10-17T00:10:14.049Z;0;3.9510e+01;0;     0.082;  2796.640;  56518.328; 0;  56449.094;  56518.328;  57864.730;  55068.090;139;   5.770; 203.448;;;  98.419; 151.420;  11.226;   2.786;   2.409;   5.784;   5.762;   5.645;  -1.159;   0.280;;;;;;;;;;;;;;;;;;
2010-10-17T00:10:22.049Z;0;3.9680e+01;0;     0.082;  2796.332;  56638.980; 0;  56569.910;  56638.980;  57985.352;  55189.020;139;   5.771; 203.507;;;  98.478; 151.480;  11.227;   2.786;   2.409;   5.785;   5.763;   5.647;  -1.158;   0.280;;;;;;;;;;;;;;;;;;
2010-10-17T00:10:30.049Z;0;3.9360e+01;0;     0.078;  2796.024;  56410.375; 0;  56341.039;  56410.375;  57756.395;  54960.367;139;   5.772; 203.566;;;  98.537; 151.539;  11.228;   2.786;   2.408;   5.786;   5.764;   5.648;  -1.157;   0.281;;;;;;;;;;;;;;;;;;
2010-10-17T00:10:38.049Z;0;4.0340e+01;0;     0.082;  2795.744;  57100.410; 0;  57031.926;  57100.410;  58446.926;  55651.184;139;   5.773; 203.626;;;  98.596; 151.599;  11.229;   2.785;   2.408;   5.787;   5.765;   5.649;  -1.155;   0.281;;;;;;;;;;;;;;;;;;
2010-10-17T00:10:46.049Z;0;3.9800e+01;0;     0.082;  2795.436;  56722.062; 0;  56653.137;  56722.062;  58068.094;  55272.656;139;   5.774; 203.685;;;  98.655; 151.658;  11.230;   2.785;   2.408;   5.788;   5.766;   5.650;  -1.154;   0.281;;;;;;;;;;;;;;;;;;
2010-10-17T00:10:54.049Z;0;4.0050e+01;0;     0.083;  2795.156;  56898.512; 0;  56829.812;  56898.512;  58244.574;  55449.418;139;   5.775; 203.744;;;  98.713; 151.718;  11.231;   2.785;   2.408;   5.789;   5.767;   5.652;  -1.153;   0.281;;;;;;;;;;;;;;;;;;
2010-10-17T00:11:02.049Z;0;4.0070e+01;0;     0.081;  2794.064;  56914.238; 0;  56845.613;  56914.238;  58259.809;  55465.746;139;   5.776; 203.804;;;  98.772; 151.777;  11.232;   2.784;   2.407;   5.789;   5.768;   5.653;  -1.151;   0.281;;;;;;;;;;;;;;;;;;
2010-10-17T00:11:18.049Z;0;4.0150e+01;0;     0.082;  2789.360;  56970.215; 0;  56901.887;  56970.215;  58313.656;  55524.297;139;   5.778; 203.922;;;  98.890; 151.896;  11.235;   2.784;   2.407;   5.791;   5.770;   5.655;  -1.149;   0.281;;;;;;;;;;;;;;;;;;
2010-10-17T00:11:26.049Z;0;3.9760e+01;0;     0.082;  2787.008;  56694.363; 0;  56625.820;  56694.363;  58036.469;  55249.461;139;   5.779; 203.982;;;  98.949; 151.955;  11.236;   2.784;   2.407;   5.792;   5.771;   5.657;  -1.147;   0.281;;;;;;;;;;;;;;;;;;
2010-10-17T00:11:34.049Z;0;3.9800e+01;0;     0.080;  2784.656;  56719.789; 0;  56651.391;  56719.789;  58060.828;  55276.172;139;   5.780; 204.041;;;  99.008; 152.015;  11.237;   2.783;   2.407;   5.793;   5.772;   5.658;  -1.146;   0.281;;;;;;;;;;;;;;;;;;